Theta_e
322 325 327 325 326 324 322 323 324 323 323 324 324 325 324 324 324 325 326 326 326 326 325 324 326 323 323 327 330 331 332 332 330 329 329 329 327 325 326 325 325 327 327 326
323 325 321 321 322 323 325 325 324 323 321 323 322 323 322 322 323 324 324 325 325 325 325 324 323 326 322 325 329 330 331 331 331 330 329 329 328 325 325 325 325 326 327 327
323 320 319 320 320 322 322 323 323 324 321 321 321 323 322 321 321 322 322 323 323 323 325 324 324 323 325 324 327 329 330 331 331 331 330 330 329 328 327 326 327 328 327 327
321 320 322 322 322 321 323 320 320 320 322 324 319 323 320 319 319 319 320 321 321 323 324 323 324 324 323 323 325 328 330 331 331 331 331 331 330 329 328 327 327 326 326 327
319 320 321 323 322 321 323 319 320 320 323 322 321 324 320 320 320 320 320 320 320 321 322 322 324 324 325 325 323 328 329 331 331 331 331 331 331 330 329 328 327 326 326 326
317 317 319 319 318 319 319 321 321 322 324 327 323 322 321 319 321 322 322 321 321 321 322 322 322 323 324 325 325 324 329 330 331 331 331 331 331 330 330 328 327 327 326 326
316 318 317 319 320 319 320 322 326 326 325 327 320 325 322 322 322 322 321 321 322 322 322 321 320 320 320 323 324 325 325 329 329 332 331 331 331 330 330 329 328 327 327 326
316 316 316 317 318 320 321 322 324 322 327 324 321 326 325 321 321 321 322 321 321 320 317 313 312 312 313 315 319 322 322 325 328 330 332 331 331 331 330 330 329 328 328 328
314 313 315 313 317 317 320 323 320 321 322 324 324 322 321 321 321 321 320 320 317 317 315 312 312 310 309 310 313 318 319 321 323 328 331 331 330 330 330 329 329 329 329 329
316 315 315 313 314 317 319 318 323 322 323 323 318 320 321 320 320 319 320 318 315 315 316 315 315 313 310 309 308 310 312 318 318 322 327 330 330 330 330 329 329 330 330 330
316 317 319 317 318 318 317 320 320 321 323 322 320 318 317 317 317 318 318 316 315 313 316 317 315 315 313 309 308 307 309 312 315 319 323 327 328 329 329 330 329 329 330 330
316 317 319 317 316 317 317 317 319 321 318 320 320 320 315 317 318 318 317 315 316 316 317 316 316 315 316 314 312 307 307 309 311 314 320 323 326 327 328 329 329 329 330 330
315 317 318 317 315 315 319 318 317 318 318 321 320 317 317 316 317 317 317 317 318 318 318 317 317 316 316 316 313 311 306 305 307 312 315 319 322 325 326 328 328 329 329 329
314 315 315 315 315 315 317 316 318 319 321 320 321 319 316 318 318 318 318 318 318 318 317 317 317 317 316 315 315 311 308 305 304 309 315 317 320 323 325 326 327 328 328 328
314 315 315 312 312 315 318 319 319 321 321 321 319 318 318 317 318 318 318 318 317 316 316 316 316 316 316 315 314 311 308 305 303 304 311 316 320 321 323 325 326 326 326 325
313 315 315 314 313 312 317 318 319 319 320 319 319 321 319 318 317 317 316 316 316 316 315 314 311 311 313 314 312 310 307 304 304 303 306 311 316 320 322 323 323 323 323 323
314 314 316 316 314 315 315 315 314 316 318 318 321 320 318 317 317 316 316 315 313 309 306 306 305 306 307 310 311 309 306 304 304 304 304 308 312 317 319 320 320 321 321 322
313 313 314 315 314 317 313 311 312 313 313 316 317 317 316 315 315 315 309 307 306 305 304 303 302 301 302 304 305 305 304 303 304 304 304 305 311 313 315 316 317 318 319 320
312 313 316 315 315 313 311 308 310 315 315 314 314 314 314 310 310 311 306 303 303 302 301 299 298 297 299 298 296 298 301 303 304 304 304 304 304 310 312 313 314 314 314 315
309 313 314 312 312 314 311 308 309 312 315 309 310 309 308 308 312 311 303 302 300 299 298 296 295 295 295 293 293 295 298 299 301 300 301 302 302 302 305 308 309 310 310 311
311 311 314 314 314 312 307 307 309 310 309 306 306 305 305 308 306 302 300 299 298 296 294 292 292 292 292 290 290 294 296 294 293 295 297 301 301 302 302 302 303 304 303 305
312 314 313 314 313 312 306 304 309 307 303 302 301 301 300 299 298 297 296 296 295 293 291 289 289 289 290 288 287 290 291 290 291 293 295 297 301 299 302 303 302 302 303 303
311 309 310 310 309 304 303 304 299 299 302 298 298 295 294 294 295 294 293 292 291 290 288 287 286 287 287 286 285 286 287 287 289 291 292 294 296 299 299 299 301 302 303 302
302 303 304 305 305 303 301 297 295 295 295 292 291 291 290 291 292 291 290 290 289 289 287 285 285 285 285 284 284 285 285 287 288 290 291 292 294 296 298 299 300 301 300 301
303 302 305 305 304 301 298 297 293 291 289 289 287 287 287 288 289 288 287 287 287 286 285 284 283 283 283 282 282 283 283 284 287 289 290 291 291 293 295 296 298 298 299 300
302 304 303 303 301 303 298 292 289 290 288 287 285 285 285 284 285 285 285 284 284 284 283 282 281 280 280 280 281 281 282 282 283 287 290 291 291 292 292 293 292 293 296 298
Wind_Speed
13 10 16 18 19 18 16 17 16 13 6 10 17 21 20 21 22 23 21 20 21 21 22 23 24 23 25 25 28 31 33 35 33 33 32 30 32 32 29 29 30 29 29 28
9 21 17 16 17 21 20 19 19 14 7 10 19 25 23 23 26 24 23 23 23 22 21 21 24 24 26 28 30 31 32 34 39 36 37 34 31 32 32 32 33 35 31 31
17 4 21 16 18 18 18 19 16 15 12 15 17 28 26 26 29 26 25 26 26 25 23 21 20 26 26 30 31 33 35 37 37 37 33 28 27 26 27 31 33 35 36 35
16 19 14 18 21 17 19 16 15 13 9 9 3 11 20 20 23 23 19 19 21 20 20 19 18 24 27 28 30 34 36 38 39 39 33 36 36 33 39 36 34 35 38 37
12 16 17 18 17 15 12 10 11 12 14 15 18 10 6 7 14 14 13 15 17 17 16 17 16 20 24 25 29 33 35 37 38 39 40 37 35 35 29 29 30 33 36 40
22 4 14 22 13 13 5 10 10 9 3 7 15 13 11 11 7 5 8 15 13 14 13 11 16 16 19 19 23 28 32 34 37 40 42 39 39 36 31 31 32 34 35 37
18 17 8 7 18 18 15 10 3 5 4 8 10 13 19 7 10 17 18 13 13 11 11 12 13 13 16 16 19 26 30 34 35 39 42 44 42 40 38 38 35 31 33 36
16 12 26 14 19 9 20 14 5 8 6 6 11 12 12 5 9 11 11 10 10 9 5 6 8 11 14 16 17 20 29 31 33 35 39 41 43 39 38 36 35 36 35 37
18 17 3 18 15 18 14 17 18 12 1 3 7 18 18 16 17 19 14 9 1 4 6 6 7 9 10 12 14 16 23 28 31 32 35 38 38 39 37 37 35 36 36 35
9 12 11 20 14 20 17 11 3 4 6 9 14 19 14 6 10 12 7 10 2 5 7 10 11 13 13 10 11 13 17 25 30 31 33 36 37 36 37 34 36 36 36 35
7 9 7 14 15 19 15 17 8 6 6 5 5 9 6 10 8 2 6 2 6 7 12 13 12 16 15 12 11 13 15 18 25 27 30 35 34 35 35 36 37 38 36 35
22 1 7 13 1 16 20 25 23 9 9 5 9 17 4 4 1 5 5 5 6 9 13 15 14 18 16 15 16 11 13 19 23 25 25 32 28 29 33 35 37 36 35 34
17 6 5 4 7 7 12 20 21 23 14 14 8 13 3 15 13 5 8 12 14 14 17 16 13 13 18 21 17 16 12 18 21 23 24 27 23 27 32 33 33 33 33 32
17 10 14 13 2 4 9 24 24 21 13 23 16 27 21 10 12 16 17 14 18 17 16 15 15 15 21 22 23 23 17 16 17 20 20 21 21 25 28 30 30 31 33 31
12 9 15 20 18 7 11 8 18 25 26 15 25 25 24 21 19 16 17 17 16 16 16 15 16 15 20 23 24 24 24 21 18 18 22 19 21 22 24 27 27 28 30 30
15 3 7 10 18 19 11 12 16 20 20 19 26 24 26 20 21 17 14 17 15 17 17 16 17 17 16 21 23 24 26 24 22 19 20 19 20 16 21 25 27 26 28 29
15 6 5 7 8 7 5 24 22 21 22 23 21 30 19 17 13 16 15 15 14 14 16 17 18 17 23 25 27 22 23 24 19 18 18 20 17 19 22 25 27 26 27 28
11 8 2 1 5 7 10 4 16 23 23 21 22 27 18 17 15 14 9 8 10 14 16 17 16 24 26 27 25 23 21 19 17 18 16 19 18 19 22 25 25 24 24 25
13 11 4 5 10 10 12 8 6 10 14 18 23 20 13 9 10 3 8 9 10 13 14 18 22 24 25 23 26 25 18 17 16 17 16 19 17 17 18 18 18 20 22 21
2 13 8 4 8 10 5 3 4 7 8 6 8 8 2 6 4 7 14 14 13 17 18 22 24 22 21 24 26 23 21 17 14 17 17 13 15 12 12 13 15 16 17 19
6 7 16 13 7 6 3 6 8 7 2 8 7 4 0 1 5 12 12 13 15 16 19 22 21 20 22 23 25 20 18 18 21 19 15 10 11 11 8 7 9 10 8 9
12 9 6 6 9 15 6 5 7 5 6 7 4 3 3 6 8 11 15 14 12 13 19 20 20 21 21 22 22 20 17 22 23 21 19 15 10 10 7 7 7 7 9 11
7 6 5 9 5 2 3 3 5 4 7 5 4 2 3 7 6 7 11 14 13 16 17 18 20 21 20 20 19 18 20 23 22 21 18 15 13 8 6 8 11 12 14 16
6 4 2 2 6 5 6 5 5 5 6 6 3 1 4 7 7 8 8 10 11 15 16 17 18 18 20 21 21 19 23 23 22 19 18 17 12 9 8 10 11 14 17 17
2 11 6 4 2 1 3 5 8 6 5 4 2 2 5 7 7 8 9 10 12 15 16 16 15 16 17 20 22 24 26 25 22 18 16 14 12 11 7 6 8 13 15 17
6 5 6 5 2 2 4 9 6 6 4 2 1 3 4 6 8 9 9 13 15 15 17 16 16 15 16 18 22 24 26 26 24 18 15 14 10 7 5 3 7 5 4 11
Wind_Direction
200 210 213 207 220 233 253 245 253 252 244 292 270 273 274 273 266 266 263 262 264 266 265 260 251 248 241 228 224 213 203 204 200 201 201 203 204 209 213 218 213 211 212 212
193 229 218 221 226 235 242 252 250 256 275 276 278 274 270 268 269 265 266 268 269 269 266 262 253 241 234 230 221 219 215 206 200 201 203 206 206 209 215 218 222 216 212 212
207 233 217 226 227 225 234 239 245 262 290 275 287 284 263 254 256 258 257 262 263 264 267 268 263 247 234 229 223 218 213 211 208 203 203 206 209 215 214 217 218 216 213 213
226 224 187 215 225 221 240 240 256 262 273 258 260 287 288 289 275 272 272 262 259 255 256 263 263 261 250 237 232 224 217 213 208 207 203 202 202 204 212 212 214 214 213 215
210 207 208 212 207 209 233 249 242 247 253 267 258 271 281 270 281 273 260 266 260 263 262 270 267 268 254 252 238 228 223 216 209 207 208 207 210 216 215 214 214 214 213 214
230 184 225 227 221 224 208 241 258 258 310 240 234 227 280 258 271 313 276 267 273 267 273 301 290 282 273 260 249 237 225 226 218 209 211 212 212 211 212 212 213 212 212 213
223 220 221 232 223 218 220 210 207 221 212 244 211 208 243 285 267 291 272 291 307 296 307 292 292 298 296 269 249 238 229 229 224 217 214 213 218 216 213 212 212 211 210 213
207 214 221 198 222 190 207 189 210 215 209 249 192 232 244 238 255 272 275 299 307 291 320 345 339 327 315 295 277 247 231 234 232 223 223 219 218 220 222 222 217 215 215 216
200 221 219 202 205 202 194 220 235 273 297 278 226 249 262 254 246 267 260 265 231 23 360 8 356 346 345 322 289 267 240 240 237 230 226 223 224 222 222 225 225 224 221 221
201 226 183 194 210 226 232 157 149 206 224 232 241 246 245 190 225 265 247 194 285 322 323 342 342 340 326 325 313 279 268 250 245 236 229 227 222 227 228 228 226 226 225 222
214 234 167 163 208 205 209 225 228 212 222 228 250 240 259 282 272 239 347 129 334 353 335 332 336 328 318 303 319 310 285 264 256 242 231 232 221 225 228 229 228 226 225 223
204 279 213 205 122 217 218 221 215 217 214 264 278 269 291 286 221 340 318 6 331 310 328 334 328 319 317 315 316 288 277 258 248 247 237 235 230 227 230 231 231 229 226 222
192 210 190 249 278 233 236 228 228 233 251 237 216 260 264 234 258 276 311 326 327 326 327 320 317 316 315 319 306 309 275 264 259 239 238 239 226 232 232 232 232 231 227 222
177 196 211 222 130 131 215 232 227 227 224 236 226 258 252 245 289 310 314 327 318 319 322 322 319 319 313 312 309 307 301 280 260 250 235 239 235 236 238 235 230 227 225 221
191 221 220 236 255 265 247 229 239 220 227 226 238 244 260 266 279 292 322 310 313 322 320 325 324 320 316 312 309 305 304 299 278 248 238 227 232 235 241 237 229 227 225 225
202 226 213 243 245 248 242 251 230 227 237 245 262 267 263 280 293 296 299 310 323 321 327 335 328 327 321 321 316 310 303 303 296 275 252 241 229 225 238 243 237 227 230 230
189 162 157 228 200 240 274 241 243 241 225 226 233 244 272 274 293 294 318 323 333 337 330 330 329 327 322 321 320 307 307 306 296 284 278 260 242 227 230 243 244 233 230 231
183 169 131 235 138 216 239 239 235 235 235 239 251 260 278 288 305 302 36 10 340 331 332 332 332 328 326 322 326 323 311 312 304 289 282 271 238 222 224 222 234 239 234 229
190 184 183 218 215 281 290 211 190 191 247 240 246 264 287 316 293 146 42 9 351 335 331 330 330 329 329 340 339 335 331 333 322 312 302 286 258 224 216 219 220 227 230 230
208 202 205 158 226 233 312 147 139 151 261 144 131 120 147 302 265 115 3 352 340 338 337 335 336 337 344 344 342 341 341 342 345 335 325 313 298 272 236 216 219 226 231 234
171 181 209 213 240 264 242 124 167 175 193 124 118 120 54 321 18 320 329 333 336 337 337 338 342 344 344 348 347 347 353 359 341 332 323 315 307 286 265 247 224 217 212 214
187 174 191 196 209 243 151 145 214 107 95 124 115 116 315 313 323 314 322 327 333 335 341 348 344 341 347 355 354 348 358 344 339 334 328 324 308 290 259 226 213 193 193 194
204 203 195 202 218 96 126 65 92 82 136 139 168 160 282 290 307 314 311 321 332 338 342 344 343 337 346 352 351 343 338 339 337 334 330 325 315 293 268 220 198 180 182 185
218 187 230 123 203 202 154 110 111 98 112 124 126 249 284 293 311 308 313 320 323 332 338 339 339 338 334 341 341 336 336 338 338 335 335 326 312 292 248 230 217 202 199 206
143 148 166 256 219 109 175 173 152 134 117 134 160 257 292 311 316 325 320 320 321 324 330 332 330 328 327 331 332 336 338 340 337 332 331 327 314 299 274 247 235 220 218 223
181 164 184 220 141 273 91 147 147 159 156 147 286 295 310 315 318 323 316 319 319 322 323 324 323 320 321 326 330 336 337 339 333 326 326 324 311 286 257 162 93 76 212 226